Powrót do katalogu

SL-8 DEB

AktywnyLEO
NORAD 21156·DEBRIS·🇷🇺 Russia

Wystrzelony Feb 12, 1991 z Plesetsk Cosmodrome

Loading…

Następne Przeloty (najbliższe 24 godziny)

TLE

ŚwieżeSource: Space-Track

Epoka: Sep 14, 2026, 15:49 UTC

1 21156U 91009T   26257.65931927 -.00000026  00000-0 -84463-4 0  9997
2 21156  73.9111 229.6046 0146622 169.5145   4.1500 12.33875120600301

Śledź SL-8 DEB w czasie rzeczywistym z AllMySat

Download on the App Store